Tracking 22458 objects as of 2-Mar-2021
HD Live streaming from Space Station
objects crossing your sky now

CZ-4 DEB

Track CZ-4 DEB now!
10-day predictions


NORAD ID: 20884
Int'l Code: 1990-081AU
Perigee: 822.1 km
Apogee: 867.0 km
Inclination: 98.6 °
Period: 101.7 minutes
Semi major axis: 7215 km
RCS: 0.0546 m2 (small)
Launch date: September 3, 1990
Source: People's Republic of China (PRC)
Launch site: Taiyaun Space Center, China (TSC)

Note: This is SATELLITE DEBRIS
aabbcc
Your satellite tracking list
Your tracking list is empty




NASA's NSSDC Master Catalog

Two Line Element Set (TLE):
1 20884U 90081AU  21060.39419572  .00000390  00000-0  21644-3 0  9991
2 20884  98.6204 108.7389 0031133 110.3608 250.0916 14.16439564381074
Source of the keplerian elements: AFSPC